K0HYD Weather Reports


Display with metric or nautical units.
time (UTC)temp
F
wind
direction
speed
MPH
gust
MPH
rain 1hr
in
rain 24hr
in
rain mn
in
humidity
%
barometer
mb
20260510163410 57 65 0.0 1.0 0.00 0.00 0.21 67 1020.9
20260510161909 56 34 0.0 1.0 0.00 0.00 0.21 76 1021.0
20260510160408 54 30 0.0 1.0 0.00 0.00 0.21 78 1020.8
20260510154907 52 53 0.0 2.0 0.00 0.00 0.21 82 1020.5
20260510153406 52 5 0.0 1.0 0.00 0.00 0.21 88 1020.3
20260510151905 52 26 0.0 1.0 0.00 0.00 0.21 88 1019.4
20260510144903 51 77 0.0 1.0 0.00 0.00 0.21 89 1020.2
20260510143402 52 71 0.0 1.0 0.00 0.00 0.20 88 1019.9
20260510141901 52 68 0.0 1.0 0.00 0.00 0.19 87 1020.2
20260510140400 52 64 0.0 1.0 0.00 0.00 0.19 90 1020.3
20260510134859 52 27 0.0 1.0 0.00 0.00 0.19 91 1020.0
20260510133359 52 89 0.0 0.0 0.00 0.00 0.19 90 1020.0
20260510131857 52 60 0.0 1.0 0.00 0.00 0.18 88 1020.0
20260510130356 53 53 0.0 0.0 0.00 0.00 0.13 87 1020.1
20260510124856 54 12 0.0 0.0 0.00 0.00 0.06 83 1019.6
20260510123354 56 277 0.0 0.0 0.00 0.00 0.02 79 1019.4
20260510120353 58 50 0.0 1.0 0.00 0.00 0.00 70 1017.7
20260510114852 58 44 0.0 1.0 0.00 0.00 0.00 66 1016.8
20260510113351 58 32 0.0 2.0 0.00 0.00 0.00 67 1015.8
20260510111850 58 43 0.0 10.0 0.00 0.00 0.00 68 1015.5
20260510110349 58 67 0.0 7.0 0.00 0.00 0.00 68 1015.2
20260510104848 59 23 0.0 1.0 0.00 0.00 0.00 68 1014.9
20260510103347 59 20 0.0 2.0 0.00 0.00 0.00 67 1015.1
20260510101846 60 32 0.0 1.0 0.00 0.00 0.00 66 1014.5
20260510100345 60 16 0.0 1.0 0.00 0.00 0.00 65 1014.5
20260510094844 60 52 0.0 1.0 0.00 0.00 0.00 66 1014.4
20260510093343 59 65 1.0 4.0 0.00 0.00 0.00 68 1014.1
20260510091842 59 39 0.0 1.0 0.00 0.00 0.00 69 1013.6
20260510090341 58 36 0.0 2.0 0.00 0.00 0.00 70 1013.8
20260510084840 59 44 0.0 2.0 0.00 0.00 0.00 70 1013.7
20260510083339 59 356 0.0 6.0 0.00 0.00 0.00 70 1013.7
20260510081838 60 352 0.0 1.0 0.00 0.00 0.00 70 1013.5
20260510074837 60 60 0.0 1.0 0.00 0.00 0.00 70 1013.2
20260510073336 60 57 0.0 1.0 0.00 0.00 0.00 70 1012.9
20260510071834 60 50 0.0 1.0 0.00 0.00 0.00 71 1013.0
20260510070334 60 46 0.0 1.0 0.00 0.00 0.00 71 1012.9
20260510064832 61 335 0.0 1.0 0.00 0.00 0.00 70 1012.8
20260510063332 62 44 0.0 1.0 0.00 0.00 0.00 69 1012.4
20260510061830 62 53 0.0 1.0 0.00 0.00 0.00 68 1012.5
20260510060330 63 13 0.0 1.0 0.00 0.00 0.00 66 1012.3
20260510054829 64 43 0.0 1.0 0.00 0.00 0.00 65 1012.0
20260510053328 65 1 0.0 1.0 0.00 0.00 0.00 64 1011.6
20260510050326 64 24 0.0 1.0 0.00 0.00 0.00 65 1011.3
20260510044825 62 60 0.0 0.0 0.00 0.00 0.00 69 1011.3
20260510043324 63 115 0.0 0.0 0.00 0.00 0.00 68 1011.0
20260510041823 64 114 0.0 0.0 0.00 0.00 0.00 66 1011.1
20260510034821 65 57 0.0 0.0 0.00 0.00 0.00 65 1010.8
20260510033320 65 138 0.0 0.0 0.00 0.00 0.00 64 1010.7
20260510031819 66 139 0.0 0.0 0.00 0.00 0.00 59 1010.3
20260510030318 68 138 0.0 0.0 0.00 0.00 0.00 56 1010.2
20260510024817 69 132 0.0 0.0 0.00 0.00 0.00 55 1010.2
20260510023316 69 177 0.0 2.0 0.00 0.00 0.00 53 1010.0
20260510021815 69 146 0.0 1.0 0.00 0.00 0.00 51 1010.3
20260510020314 71 23 0.0 1.0 0.00 0.00 0.00 50 1010.7
20260510014813 75 349 0.0 1.0 0.00 0.00 0.00 41 1010.4
20260510013313 75 177 0.0 0.0 0.00 0.00 0.00 37 1010.6
20260510011812 77 286 0.0 0.0 0.00 0.00 0.00 33 1010.1
20260510010311 78 287 0.0 0.0 0.00 0.00 0.00 32 1009.1
20260510004809 79 136 0.0 0.0 0.00 0.00 0.00 28 1008.0
20260510003308 80 147 0.0 4.0 0.00 0.00 0.00 27 1006.9
20260510000307 82 118 3.0 3.0 0.00 0.00 0.00 25 1006.5
20260509234806 84 160 0.0 4.0 0.00 0.00 0.00 23 1006.5
20260509233305 85 199 0.0 5.0 0.00 0.00 0.00 22 1006.6
20260509231804 86 137 0.0 2.0 0.00 0.00 0.00 21 1006.8
20260509230303 87 241 0.0 3.0 0.00 0.00 0.00 22 1006.9
20260509223301 87 215 0.0 6.0 0.00 0.00 0.00 22 1007.0
20260509221800 88 232 0.0 2.0 0.00 0.00 0.00 21 1006.9
20260509220259 88 229 0.0 5.0 0.00 0.00 0.00 19 1006.8
20260509214758 88 165 0.0 1.0 0.00 0.00 0.00 20 1006.8
20260509213257 88 159 0.0 4.0 0.00 0.00 0.00 20 1006.8
20260509210255 88 123 0.0 4.0 0.00 0.00 0.00 20 1007.5
20260509204754 88 121 4.0 6.0 0.00 0.00 0.00 19 1007.6
20260509203253 88 129 0.0 5.0 0.00 0.00 0.00 21 1007.7
20260509201752 88 221 0.0 2.0 0.00 0.00 0.00 21 1007.8
20260509200251 88 281 0.0 3.0 0.00 0.00 0.00 20 1008.0
20260509194750 87 134 0.0 1.0 0.00 0.00 0.00 23 1008.2
20260509191748 87 243 0.0 0.0 0.00 0.00 0.00 23 1008.8
20260509190247 87 40 0.0 1.0 0.00 0.00 0.00 25 1008.7
20260509184746 87 250 0.0 1.0 0.00 0.00 0.00 25 1008.9
20260509183246 86 250 0.0 1.0 0.00 0.00 0.00 25 1009.3
20260509181745 85 236 0.0 1.0 0.00 0.00 0.00 26 1009.5
20260509180243 86 210 0.0 1.0 0.00 0.00 0.00 23 1009.7
20260509174742 86 207 0.0 1.0 0.00 0.00 0.00 24 1009.9
20260509173242 86 276 0.0 1.0 0.00 0.00 0.00 26 1010.0
20260509171741 85 253 0.0 0.0 0.00 0.00 0.00 26 1010.5
20260509170240 84 263 0.0 1.0 0.00 0.00 0.00 26 1010.6
20260509164739 83 224 0.0 2.0 0.00 0.00 0.00 27 1010.8